Miscellaneous Local Product
Issued by NWS North Platte, NE

Home | Current Version | Previous Version | Text Only | Print | Product List | Glossary On
Versions: 1 2 3 4 5 6 7 8 9 10 11 12 13 14 15 16 17 18 19 20 21 22 23 24 25 26 27 28 29 30 31 32 33 34 35 36 37 38 39 40 41 42 43 44 45 46 47 48 49 50
211
AXUS43 KLBF 271910
MISLBF


WESTERN AND NORTH CENTRAL NEBRASKA HOURLY WEATHER ROUNDUP
NATIONAL WEATHER SERVICE NORTH PLATTE NE
100 PM CST MON FEB 27 2017

NOTE: "FAIR" INDICATES FEW OR NO CLOUDS BELOW 12,000 FEET WITH NO
SIGNIFICANT WEATHER AND/OR OBSTRUCTIONS TO VISIBILITY.

NOTE: STATIONS NOT REPORTING VARIABLES SUCH AS SKY/WEATHER OR
PRESSURE ARE PROVIDED BY RAWS AND APRS NETWORKS AND ARE NOT UNDER
NATIONAL WEATHER SERVICE QUALITY CONTROL.

...OBSERVATIONS IN AND NEAR THE EASTERN PANHANDLE OF NEBRASKA...

CITY           SKY/WX    TMP DP  RH WIND       PRES   REMARKS
PINE RIDGE     CLOUDY    35  20  54 SW8       29.65S WCI  29
CHADRON        CLOUDY    34  16  47 CALM      29.63F
ALLIANCE       CLOUDY    31  21  66 CALM      29.62F
SIDNEY         SUNNY     47  18  31 S21       29.63F
CRESCENT LAKE    N/A     37  20  50 S7          N/A  WCI  31
$$

...OBSERVATIONS IN NORTHERN NEBRASKA AND FAR SOUTHERN SOUTH DAKOTA...

CITY           SKY/WX    TMP DP  RH WIND       PRES   REMARKS
WINNER         FAIR      44  27  51 SW18      29.71F
VALENTINE      SUNNY     38  26  62 S17       29.69F WCI  28
THEDFORD       SUNNY     43  30  61 S17       29.70F
AINSWORTH      CLOUDY    40  30  66 S18       29.71F WCI  31
O`NEILL        CLOUDY    41  28  58 S16       29.77F
ORD            SUNNY     45  27  49 S14G23    29.76F
BROKEN BOW     SUNNY     44  29  55 S14G24    29.74F
VALENTINE NWR    N/A     39  26  58 S16G24      N/A  WCI  30
BUTTE            N/A     40  27  59 SW10G17     N/A  WCI  33
HALSEY           N/A     44  26  49 S13G24      N/A
CHAMBERS         N/A     47  27  45 S6          N/A
EWING            N/A     44  28  53 S10G17      N/A
$$

...OBSERVATIONS IN SOUTHWEST NEBRASKA AND FAR NORTHEAST COLORADO...

CITY           SKY/WX    TMP DP  RH WIND       PRES   REMARKS
HOLYOKE        FAIR      54  27  35 S9G16     29.66F
IMPERIAL       SUNNY     43  23  45 S12       29.69F
OGALLALA       SUNNY     43  29  58 S8        29.68F
NORTH PLATTE   SUNNY     46  27  47 S14       29.72F
MCCOOK         SUNNY     46  28  49 VRB7      29.73F
LEXINGTON      SUNNY     48  30  49 S20G26    29.74F
STAPLETON        N/A     47  31  53 CALM        N/A
GOTHENBURG       N/A     45  28  50 S10         N/A
CALLAWAY         N/A     44  32  63 S20         N/A
$$

...OBSERVATIONS IN CENTRAL LINCOLN COUNTY AREA...

CITY           SKY/WX    TMP DP  RH WIND       PRES   REMARKS
N.P. AIRPORT   SUNNY     46  27  47 S14       29.72F
N.P. DOWNTOWN    N/A     18  11  74 W3          N/A
N.P. SOUTHEAST   N/A     44  29  57 S7G14       N/A
N.P. HILLCREST   N/A     44  30  57 S12G18      N/A
$$

...SOME OBSERVATIONS FROM AROUND THE REGION...

CITY           SKY/WX    TMP DP  RH WIND       PRES   REMARKS
LARAMIE        CLOUDY    34  20  56 SW24G31   29.54F WCI  21
CHEYENNE       SUNNY     34  15  46 S15G22    29.59F WCI  24
DENVER         MOSUNNY   53   8  16 S20       29.56F
AKRON          SUNNY     51   6  16 S13G18    29.63F
SCOTTSBLUFF    CLOUDY    33  18  53 E8        29.63F WCI  26
RAPID CITY     CLOUDY    43  23  45 SW21      29.60F
BISMARCK       CLOUDY    24  18  77 NE13      29.80F WCI  12
PIERRE         SUNNY     44  16  32 VRB6      29.67F
SIOUX FALLS    CLOUDY    42  24  49 S13       29.84F
OMAHA          CLOUDY    51  25  36 S16       29.90F
GRAND ISLAND   PTSUNNY   49  28  44 S16G24    29.81F
KANSAS CITY    PTSUNNY   58  33  39 S17       29.95F
WICHITA        CLOUDY    56  46  69 S20       29.85F
OKLAHOMA CITY  MOSUNNY   71  52  50 SW16G28   29.87F
DALLAS         LGT RAIN  73  64  73 S17       29.91F
AMARILLO       SUNNY     66  22  18 SW23G31   29.85F
DODGE CITY     SUNNY     61  26  26 S22G29    29.76F
HAYS           SUNNY     57  32  38 S16G23    29.74F
GOODLAND       SUNNY     56  11  16 SW15G23   29.67F
$$




USA.gov is the U.S. government's official web portal to all federal, state and local government web resources and services.